Regional Weather Roundup
Issued by NWS Upton, NY

Home | Current Version | Previous Version | Text Only | Print | Product List | Glossary On
Versions: 1 2 3 4 5 6 7 8 9 10 11 12 13 14 15 16 17 18 19 20 21 22 23 24 25 26 27 28 29 30 31 32 33 34 35 36 37 38 39 40 41 42 43 44 45 46 47 48 49 50
000
ASUS41 KOKX 291005
RWROKX

REGIONAL WEATHER ROUNDUP
NATIONAL WEATHER SERVICE NEW YORK NY
500 AM EST THU JAN 29 2015

NOTE: "FAIR" INDICATES FEW OR NO CLOUDS BELOW 12,000 FEET WITH NO
SIGNIFICANT WEATHER AND/OR OBSTRUCTIONS TO VISIBILITY.

NYZ071-072-176-178-NJZ106-104-291100-
NEW YORK CITY METRO AREA


CITY           SKY/WX    TMP DP  RH WIND       PRES   REMARKS
CENTRAL PARK   PTCLDY    21   2  43 VRB5      30.31F WCI  15
LAGUARDIA APRT PTCLDY    21   5  50 N6        30.30F WCI  13
KENNEDY INTL   CLEAR     19   1  45 N7        30.31S WCI  10
NEWARK/LIBERTY PTCLDY    17   2  51 N3        30.32S
BRNX BOT. GARD   N/A    N/A N/A N/A NW1       30.30F
TETERBORO      PTCLDY    16   1  51 NW5       30.31F WCI   9
$$

NYZ177-179-078>081-291100-
LONG ISLAND NEW YORK

CITY           SKY/WX    TMP DP  RH WIND       PRES   REMARKS
FARMINGDALE    CLEAR     14   3  61 CALM      30.30R
ISLIP          CLEAR     11   2  67 N3        30.27F
SHIRLEY        CLEAR     12   2  64 NW3       30.30S
WESTHAMPTON    CLEAR      4  -5  66 CALM      30.30S
MONTAUK POINT    N/A     25  10  53 N7        30.29R WCI  17
$$

NYZ052-065-067-291100-
HUDSON VALLEY

CITY           SKY/WX    TMP DP  RH WIND       PRES   REMARKS
WHITE PLAINS   PTCLDY    15  -2  46 NW10      30.26S WCI   2
NEWBURGH       CLEAR      1  -2  85 W7        30.31S WCI -11
MONTGOMERY     PTCLDY    -4  -8  83 CALM      30.30S
POUGHKEEPSIE   FAIR      -1  -8  72 CALM      30.33S
ALBANY         PTCLDY    -1  -7  75 CALM      30.34S
$$

NJZ001-105-106-008-010-013-015-019>022-104-291100-
NEW JERSEY

CITY           SKY/WX    TMP DP  RH WIND       PRES   REMARKS
NEWARK/LIBERTY PTCLDY    17   2  51 N3        30.32S
TETERBORO      PTCLDY    16   1  51 NW5       30.31F WCI   9
CALDWELL       PTCLDY    13  -1  54 CALM      30.32S
MORRISTOWN     PTCLDY     7   1  78 CALM      30.31S
SOMERVILLE     PTCLDY     6   0  76 CALM      30.30R
SUSSEX         PTCLDY    -5  -8  87 CALM      30.29S
ANDOVER          N/A     -2  -8  76 CALM      30.29S
TRENTON        CLEAR     15   1  53 NW5       30.31R WCI   8
MILLVILLE      CLEAR     12   7  80 W3        30.31R
ATLANTIC CITY  PTCLDY    16   4  59 CALM      30.31S
WRIGHTSTOWN    CLEAR     10   4  80 VRB1      30.28S
TOMS RIVER     PTCLDY     1   0  92 CALM      30.31R
BELMAR         PTCLDY    12  -2  52 NW6       30.29S WCI   3
$$

PAZ047>061-062-071-291100-
EASTERN PENNSYLVANIA

CITY           SKY/WX    TMP DP  RH WIND       PRES   REMARKS
PHILADELPHIA   CLEAR     22   3  44 NW6       30.33R WCI  14
ALLENTOWN      PTCLDY    13   3  64 SW3       30.30S
SCRANTON       PTCLDY     7   1  76 E6        30.27F WCI  -3
$$

CTZ002-004>006-009-010-012-RIZ004-006-007-MAZ004-011-015-291100-
SOUTHERN NEW ENGLAND
 IN CT

CITY           SKY/WX    TMP DP  RH WIND       PRES   REMARKS
BRADLEY INTL   PTCLDY     5  -4  66 N3        30.30S
HARTFORD       PTCLDY     4  -1  80 CALM      30.32S
DANBURY        PTCLDY     0  -6  76 CALM      30.29S
WTRBRY/OXFORD  PTCLDY    10  -6  48 NW5       30.24S WCI   2
BRIDGEPORT     PTCLDY    12   2  64 CALM      30.30S
MERIDEN        PTCLDY     6   0  76 CALM      30.31R
NEW HAVEN      PTCLDY    14   1  56 N9        30.30R WCI   2
CHESTER        FAIR      16   0  48 N7        30.27S WCI   6
GROTON         CLEAR     10  -3  55 N6        30.29R WCI   0
WILLIMANTIC    FAIR      -3  -8  79 NE5       30.30S WCI -13

 IN RI

CITY           SKY/WX    TMP DP  RH WIND       PRES   REMARKS
PROVIDENCE     PTCLDY     6  -1  73 W5        30.30R WCI  -3
BLOCK ISLAND   PTCLDY    21   7  53 N9        30.26R WCI  11
WESTERLY       PTCLDY     9  -3  58 NE5       30.29R WCI   1

 IN MA

CITY           SKY/WX    TMP DP  RH WIND       PRES   REMARKS
BOSTON         PTCLDY    14   1  56 W5        30.30R WCI   6
WORCESTER      PTCLDY    13  -6  42 N5        30.20F WCI   5
WESTFIELD      PTCLDY    -2  -8  76 CALM      30.31R
PROVINCETOWN   CLEAR     28  16  59 N12       30.25S WCI  18
NANTUCKET      MOCLDY    26  20  77 NW14      30.23R WCI  14
$$

ANZ330-335-338-340-345-350-353-355-291100-
COASTAL MARINE OBSERVATIONS


STATION/POSITION TIME  SKY/WX   TEMP    WIND        PRES    VSBY  WAVE
                                AIR SEA DIR/SP/G                  HT/PER
                 (UTC)          (F)     (DEG/KT/KT) (MB)    (MI)  (FT/S)
NY HARB ENTRANCE 1000            27 39   10/ 12/ 16 1025.5          2/11
4S FIRE IS       1000               37                N/A           2/11
20S FIRE ISLAND  0900               42              1025.9          4/ 4
23SW MTP         1000                                 N/A           3/10
HUDSON CANYON    NOT AVBL
EXECUTION ROCKS  1000            22 33  320/  6/  8   N/A
WESTERN LI SOUND 1000            22     350/  8/ 10   N/A           0
CENTRAL LI SOUND 0900            24 35   40/ 12/ 16   N/A           2/ 3
EASTERN LI SOUND NOT AVBL
ROBBINS REEF     1000            21     330/  6/  8 1025.2
$$


>>>>>>>>>>>>>>>>>>>>>>>>>>>> KEY <<<<<<<<<<<<<<<<<<<<<<<<<<<
>                                                          <
>     SKY/WX - SKY CONDITION/PRESENT WEATHER               <
>     TMP    - TEMPERATURE IN FAHRENHEIT                   <
>     DP     - DEWPOINT IN FAHRENHEIT                      <
>     RH     - RELATIVE HUMIDITY IN PERCENT                <
>     WIND   - DIRECTION AND SPEED IN MPH                  <
>     PRES   - MEAN SEA LEVEL PRESSURE IN INCHES OF HG     <
>     WCI    - WIND CHILL INDEX                            <
>     VSB    - VISIBILITY IN MILES                         <
>     HX     - HEAT INDEX                                  <
>     TC     - TEMPERATURE IN CELSIUS                      <
>     VRB    - VARIABLE WIND DIRECTION                     <
>                                                          <
>>>>>>>>>>>>>>>>>>>>>>>>>>>> KEY <<<<<<<<<<<<<<<<<<<<<<<<<<<




USA.gov is the U.S. government's official web portal to all federal, state and local government web resources and services.